Вернуться в каталог

FENGYUN 1C DEB

АктивенSSO
NORAD 40691·DEBRIS·🇨🇳 China

Запущен May 10, 1999 с Taiyuan Satellite Launch Center

Loading…

Ближайшие Пролёты (ближайшие 24 часа)

TLE

СвежийSource: Space-Track

Эпоха: Sep 13, 2026, 07:23 UTC

1 40691U 99025EWX 26256.30782875  .00000104  00000-0  11217-3 0  9996
2 40691  99.0284 285.9282 0127678 285.5437  73.1657 13.90063343592507

Отслеживайте FENGYUN 1C DEB в реальном времени с AllMySat

Download on the App Store